Anaktuvuk Pass, AK

5:40 AM AKST on February 12, 2016 (GMT -0900)
Anaktuvuk Pass

Weather History for PAKP - October, 2013

Change the Weather History Date:

Saturday, October 26, 2013

  Actual Average Record
Temperature  
Mean Temperature 24 °F -  
Max Temperature 26 °F 8 °F 35 °F (2002)
Min Temperature 23 °F 0 °F -27 °F (1996)
Degree Days  
Heating Degree Days 40    
Moisture  
Dew Point 17 °F    
Average Humidity 72    
Maximum Humidity 74    
Minimum Humidity 68    
Precipitation  
Precipitation 0.00 in - - ()
Sea Level Pressure  
Sea Level Pressure 30.18 in    
Wind  
Wind Speed 11 mph (SSW)    
Max Wind Speed 17 mph    
Max Gust Speed 22 mph    
Visibility 9 miles    
Events      
Averages and records for this station are not official NWS values.
T = Trace of Precipitation, MM = Missing Value Source: NWS Daily Summary

Daily Weather History Graph

Daily Weather History Graph

Search for Another Location

Airport or City:

Trip Planner

Search our weather history database for the weather conditions in past years. The results will help you decide how hot, cold, wet, or windy it might be!

Date:

Astronomy

Oct. 26, 2013 Rise Set
Actual Time 9:56 AM AKDT 5:44 PM AKDT
Civil Twilight 8:53 AM AKDT 6:46 PM AKDT
Nautical Twilight 7:47 AM AKDT 7:52 PM AKDT
Astronomical Twilight 6:42 AM AKDT 8:56 PM AKDT
Moon 11:56 PM AKDT (10/26) 4:39 PM AKDT (10/26)
Length of Visible Light 9h 52m
Length of Day
7h 47m
Waning Gibbous, 51% of the Moon is Illuminated
Oct 26
Waning Gibbous
Oct 26
Last Quarter
Nov 3
New
Nov 9
First Quarter
Nov 17
Full

Hourly Weather History & Observations

Time (AKDT) Temp. Windchill Dew Point Humidity Pressure Visibility Wind Dir Wind Speed Gust Speed Precip Events Conditions
12:16 AM 24.8 °F 14.0 °F 15.8 °F 69% 30.00 in 10.0 mi SSW 11.5 mph - N/A   Overcast
12:36 AM 23.0 °F 13.9 °F 14.0 °F 68% 30.01 in 10.0 mi South 8.1 mph - N/A   Overcast
12:56 AM 23.0 °F 11.7 °F 15.8 °F 74% 30.02 in 10.0 mi South 11.5 mph - N/A   Overcast
1:16 AM 23.0 °F 12.4 °F 14.0 °F 68% 30.02 in 10.0 mi South 10.4 mph - N/A   Mostly Cloudy
1:36 AM 23.0 °F 12.4 °F 14.0 °F 68% 30.03 in 10.0 mi South 10.4 mph - N/A   Partly Cloudy
1:56 AM 23.0 °F 13.1 °F 14.0 °F 68% 30.03 in 9.0 mi SSW 9.2 mph - N/A   Scattered Clouds
2:16 AM 23.0 °F 11.7 °F 15.8 °F 74% 30.03 in 10.0 mi South 11.5 mph - N/A   Overcast
2:36 AM 23.0 °F 12.4 °F 15.8 °F 74% 30.04 in 5.0 mi SSW 10.4 mph - N/A   Overcast
2:56 AM 23.0 °F 12.4 °F 15.8 °F 74% 30.04 in 5.0 mi SSW 10.4 mph - N/A   Overcast
3:16 AM 24.8 °F 11.9 °F 15.8 °F 69% 30.04 in 8.0 mi SW 16.1 mph - N/A   Overcast
3:36 AM 24.8 °F 12.9 °F 15.8 °F 69% 30.04 in 7.0 mi SW 13.8 mph 21.9 mph N/A   Mostly Cloudy
3:56 AM 24.8 °F 12.4 °F 15.8 °F 69% 30.05 in 10.0 mi SW 15.0 mph 18.4 mph N/A   Overcast
4:16 AM 24.8 °F 13.4 °F 15.8 °F 69% 30.06 in 5.0 mi SSW 12.7 mph - N/A   Overcast
4:36 AM 23.0 °F 10.1 °F 15.8 °F 74% 30.06 in 2.0 mi SW 15.0 mph - N/A   Overcast
4:56 AM 23.0 °F 10.6 °F 15.8 °F 74% 30.07 in 4.0 mi SW 13.8 mph - N/A   Overcast
5:16 AM 23.0 °F 10.6 °F 15.8 °F 74% 30.08 in 2.5 mi SW 13.8 mph - N/A   Overcast
5:36 AM 23.0 °F 11.1 °F 15.8 °F 74% 30.08 in 2.0 mi SW 12.7 mph 18.4 mph N/A   Overcast
5:56 AM 23.0 °F 11.7 °F 15.8 °F 74% 30.09 in 2.5 mi SW 11.5 mph - N/A   Overcast
6:16 AM 24.8 °F 13.4 °F 15.8 °F 69% 30.09 in 4.0 mi SW 12.7 mph - N/A   Overcast
6:36 AM 24.8 °F 13.4 °F 17.6 °F 74% 30.10 in 4.0 mi SW 12.7 mph 18.4 mph N/A   Overcast
6:56 AM 24.8 °F 14.6 °F 17.6 °F 74% 30.11 in 5.0 mi SW 10.4 mph 16.1 mph N/A   Overcast
7:16 AM 24.8 °F 14.0 °F 15.8 °F 69% 30.11 in 10.0 mi SW 11.5 mph - N/A   Overcast
7:36 AM 24.8 °F 13.4 °F 15.8 °F 69% 30.12 in 10.0 mi SW 12.7 mph 18.4 mph N/A   Overcast
7:56 AM 24.8 °F 12.4 °F 17.6 °F 74% 30.13 in 10.0 mi South 15.0 mph - N/A   Overcast
8:16 AM 24.8 °F - 15.8 °F 69% 30.14 in 10.0 mi North - - N/A   Overcast
8:36 AM 24.8 °F 14.0 °F 17.6 °F 74% 30.15 in 10.0 mi SSW 11.5 mph 16.1 mph N/A   Overcast
8:56 AM 24.8 °F 14.6 °F 17.6 °F 74% 30.15 in 10.0 mi SSW 10.4 mph - N/A   Overcast
9:16 AM 24.8 °F 14.6 °F 15.8 °F 69% 30.16 in 10.0 mi SSW 10.4 mph - N/A   Overcast
9:36 AM 24.8 °F 14.6 °F 15.8 °F 69% 30.16 in 10.0 mi SW 10.4 mph 16.1 mph N/A   Overcast
9:56 AM 24.8 °F 14.6 °F 17.6 °F 74% 30.17 in 10.0 mi South 10.4 mph - N/A   Overcast
10:16 AM 24.8 °F 14.6 °F 15.8 °F 69% 30.18 in 10.0 mi SSW 10.4 mph - N/A   Overcast
10:36 AM 24.8 °F 11.9 °F 15.8 °F 69% 30.19 in 10.0 mi South 16.1 mph - N/A   Overcast
10:56 AM 24.8 °F 11.5 °F 15.8 °F 69% 30.19 in 10.0 mi South 17.3 mph - N/A   Overcast
11:16 AM 24.8 °F 11.5 °F 15.8 °F 69% 30.20 in 10.0 mi South 17.3 mph - N/A   Overcast
11:36 AM 24.8 °F 11.9 °F 15.8 °F 69% 30.21 in 10.0 mi South 16.1 mph - N/A   Mostly Cloudy
11:56 AM 24.8 °F 12.9 °F 15.8 °F 69% 30.22 in 10.0 mi South 13.8 mph - N/A   Scattered Clouds
12:16 PM 24.8 °F 14.0 °F 17.6 °F 74% 30.23 in 10.0 mi SSW 11.5 mph - N/A   Mostly Cloudy
12:36 PM 24.8 °F 14.0 °F 17.6 °F 74% 30.24 in 10.0 mi South 11.5 mph 18.4 mph N/A   Overcast
12:56 PM 24.8 °F 14.0 °F 15.8 °F 69% 30.24 in 10.0 mi South 11.5 mph - N/A   Overcast
1:16 PM 24.8 °F 13.4 °F 15.8 °F 69% 30.25 in 10.0 mi SW 12.7 mph 17.3 mph N/A   Overcast
1:36 PM 24.8 °F 13.4 °F 17.6 °F 74% 30.25 in 10.0 mi South 12.7 mph - N/A   Overcast
1:56 PM 24.8 °F 15.3 °F 17.6 °F 74% 30.25 in 10.0 mi SSW 9.2 mph - N/A   Overcast
2:16 PM 24.8 °F 14.6 °F 17.6 °F 74% 30.26 in 10.0 mi South 10.4 mph - N/A   Overcast
2:36 PM 24.8 °F 14.6 °F 17.6 °F 74% 30.26 in 10.0 mi South 10.4 mph - N/A   Mostly Cloudy
2:56 PM 26.6 °F 16.2 °F 17.6 °F 69% 30.27 in 10.0 mi South 11.5 mph - N/A   Mostly Cloudy
3:16 PM 24.8 °F 13.4 °F 17.6 °F 74% 30.27 in 10.0 mi South 12.7 mph - N/A   Mostly Cloudy
3:36 PM 24.8 °F 13.4 °F 15.8 °F 69% 30.27 in 10.0 mi South 12.7 mph - N/A   Mostly Cloudy
3:56 PM 24.8 °F 12.4 °F 17.6 °F 74% 30.27 in 10.0 mi South 15.0 mph 21.9 mph N/A   Overcast
4:16 PM 24.8 °F 14.0 °F 17.6 °F 74% 30.27 in 10.0 mi South 11.5 mph - N/A   Overcast
4:36 PM 24.8 °F 14.6 °F 17.6 °F 74% 30.27 in 10.0 mi SSW 10.4 mph - N/A   Overcast
4:56 PM 24.8 °F 14.0 °F 17.6 °F 74% 30.27 in 10.0 mi South 11.5 mph - N/A   Overcast
5:16 PM 24.8 °F 14.6 °F 17.6 °F 74% 30.28 in 10.0 mi South 10.4 mph - N/A   Overcast
5:36 PM 26.6 °F 16.2 °F 17.6 °F 69% 30.27 in 10.0 mi South 11.5 mph - N/A   Overcast
5:56 PM 24.8 °F 15.3 °F 15.8 °F 69% 30.27 in 10.0 mi South 9.2 mph - N/A   Overcast
6:16 PM 24.8 °F 13.4 °F 17.6 °F 74% 30.27 in 10.0 mi South 12.7 mph - N/A   Overcast
6:36 PM 24.8 °F 16.1 °F 17.6 °F 74% 30.28 in 10.0 mi South 8.1 mph - N/A   Overcast
6:56 PM 24.8 °F 15.3 °F 17.6 °F 74% 30.29 in 10.0 mi South 9.2 mph - N/A   Overcast
7:16 PM 26.6 °F 17.5 °F 17.6 °F 69% 30.30 in 10.0 mi SSW 9.2 mph - N/A   Overcast
7:36 PM 26.6 °F 16.2 °F 17.6 °F 69% 30.30 in 10.0 mi SSW 11.5 mph 17.3 mph N/A   Overcast
7:56 PM 24.8 °F 13.4 °F 17.6 °F 74% 30.28 in 10.0 mi SSW 12.7 mph 17.3 mph N/A   Overcast
8:16 PM 24.8 °F 16.9 °F 17.6 °F 74% 30.28 in 10.0 mi SSE 6.9 mph - N/A   Overcast
8:36 PM 26.6 °F 20.0 °F 17.6 °F 69% 30.28 in 10.0 mi South 5.8 mph - N/A   Overcast
8:56 PM 24.8 °F 16.1 °F 17.6 °F 74% 30.28 in 10.0 mi SE 8.1 mph - N/A   Overcast
9:16 PM 24.8 °F 19.1 °F 17.6 °F 74% 30.28 in 10.0 mi South 4.6 mph - N/A   Overcast
9:36 PM 24.8 °F 16.9 °F 17.6 °F 74% 30.28 in 10.0 mi SE 6.9 mph - N/A   Overcast
9:56 PM 24.8 °F 14.0 °F 17.6 °F 74% 30.28 in 10.0 mi SW 11.5 mph 16.1 mph N/A   Overcast
10:16 PM 26.6 °F 15.7 °F 17.6 °F 69% 30.28 in 10.0 mi WSW 12.7 mph 18.4 mph N/A   Overcast
10:36 PM 26.6 °F 15.2 °F 17.6 °F 69% 30.27 in 10.0 mi WSW 13.8 mph 17.3 mph N/A   Overcast
10:56 PM 26.6 °F 16.2 °F 17.6 °F 69% 30.27 in 10.0 mi SW 11.5 mph 17.3 mph N/A   Overcast
11:16 PM 26.6 °F 16.2 °F 17.6 °F 69% 30.26 in 10.0 mi SW 11.5 mph - N/A   Overcast
11:36 PM 26.6 °F 18.2 °F 17.6 °F 69% 30.25 in 10.0 mi South 8.1 mph - N/A   Overcast
11:56 PM 24.8 °F 17.9 °F 17.6 °F 74% 30.25 in 10.0 mi South 5.8 mph - N/A   Overcast